Time,TemperatureF,DewpointF,PressureIn,WindDirection,WindDirectionDegrees,WindSpeedMPH,WindSpeedGustMPH,Humidity,HourlyPrecipIn,Conditions,Clouds,dailyrainin,SoftwareType,DateUTC
2013-02-01 00:00:00,51.4,36.7,30.19,WNW,298,3.0,9.0,57,0.00,,,0.00,VWS V14.01,2013-02-01 06:00:00,
2013-02-01 00:02:00,51.3,36.6,30.19,WNW,287,2.0,7.0,57,0.00,,,0.00,VWS V14.01,2013-02-01 06:02:00,
2013-02-01 00:07:00,51.1,36.4,30.19,WNW,300,3.0,7.0,57,0.00,,,0.00,VWS V14.01,2013-02-01 06:07:00,
2013-02-01 00:12:00,50.9,36.7,30.19,WNW,290,4.0,7.0,58,0.00,,,0.00,VWS V14.01,2013-02-01 06:12:00,
2013-02-01 00:17:00,50.7,36.5,30.20,WNW,298,3.0,7.0,58,0.00,,,0.00,VWS V14.01,2013-02-01 06:17:00,
2013-02-01 00:22:00,50.6,36.4,30.20,West,278,4.0,7.0,58,0.00,,,0.00,VWS V14.01,2013-02-01 06:22:00,
2013-02-01 00:27:00,50.5,36.7,30.20,NW,315,4.0,7.0,59,0.00,,,0.00,VWS V14.01,2013-02-01 06:27:00,
2013-02-01 00:30:00,50.5,36.7,30.20,WNW,300,5.0,8.0,59,0.00,,,0.00,VWS V14.01,2013-02-01 06:30:00,
2013-02-01 00:32:00,50.5,36.7,30.20,WNW,302,6.0,9.0,59,0.00,,,0.00,VWS V14.01,2013-02-01 06:32:00,
2013-02-01 00:37:00,50.6,37.2,30.20,NW,310,4.0,10.0,60,0.00,,,0.00,VWS V14.01,2013-02-01 06:37:00,
2013-02-01 00:42:00,50.6,37.2,30.20,NW,316,3.0,10.0,60,0.00,,,0.00,VWS V14.01,2013-02-01 06:42:00,
2013-02-01 00:47:00,50.5,37.2,30.20,WNW,300,6.0,10.0,60,0.00,,,0.00,VWS V14.01,2013-02-01 06:47:00,
2013-02-01 00:52:00,50.4,37.5,30.20,NW,317,8.0,10.0,61,0.00,,,0.00,VWS V14.01,2013-02-01 06:52:00,
2013-02-01 00:57:00,50.4,37.5,30.20,WNW,288,3.0,10.0,61,0.00,,,0.00,VWS V14.01,2013-02-01 06:57:00,
2013-02-01 01:00:00,50.4,37.5,30.20,NW,312,4.0,10.0,61,0.00,,,0.00,VWS V14.01,2013-02-01 07:00:00,
2013-02-01 01:02:00,50.4,37.5,30.20,WNW,291,4.0,9.0,61,0.00,,,0.00,VWS V14.01,2013-02-01 07:02:00,
2013-02-01 01:07:00,50.4,37.9,30.20,NW,308,5.0,9.0,62,0.00,,,0.00,VWS V14.01,2013-02-01 07:07:00,
2013-02-01 01:12:00,50.3,37.8,30.20,NW,311,4.0,9.0,62,0.00,,,0.00,VWS V14.01,2013-02-01 07:12:00,
2013-02-01 01:17:00,50.3,38.2,30.20,WNW,300,4.0,9.0,63,0.00,,,0.00,VWS V14.01,2013-02-01 07:17:00,
2013-02-01 01:22:00,50.2,38.1,30.20,NNW,328,5.0,9.0,63,0.00,,,0.00,VWS V14.01,2013-02-01 07:22:00,
2013-02-01 01:27:00,50.2,38.1,30.19,WNW,298,5.0,9.0,63,0.00,,,0.00,VWS V14.01,2013-02-01 07:27:00,
2013-02-01 01:30:00,50.2,38.1,30.19,WNW,298,4.0,9.0,63,0.00,,,0.00,VWS V14.01,2013-02-01 07:30:00,
2013-02-01 01:32:00,50.2,38.1,30.19,WNW,300,4.0,9.0,63,0.00,,,0.00,VWS V14.01,2013-02-01 07:32:00,
2013-02-01 01:37:00,50.1,38.0,30.19,WNW,301,4.0,9.0,63,0.00,,,0.00,VWS V14.01,2013-02-01 07:37:00,
2013-02-01 01:42:00,50.1,38.4,30.19,NW,314,7.0,9.0,64,0.00,,,0.00,VWS V14.01,2013-02-01 07:42:00,
2013-02-01 01:47:00,50.0,38.3,30.19,WNW,291,5.0,9.0,64,0.00,,,0.00,VWS V14.01,2013-02-01 07:47:00,
2013-02-01 01:52:00,49.9,37.8,30.19,NW,304,8.0,9.0,63,0.00,,,0.00,VWS V14.01,2013-02-01 07:52:00,
2013-02-01 01:57:00,49.9,37.8,30.19,WNW,298,4.0,9.0,63,0.00,,,0.00,VWS V14.01,2013-02-01 07:57:00,
2013-02-01 02:00:00,49.8,37.7,30.19,WNW,303,5.0,9.0,63,0.00,,,0.00,VWS V14.01,2013-02-01 08:00:00,
2013-02-01 02:02:00,49.8,37.7,30.19,WNW,284,6.0,7.0,63,0.00,,,0.00,VWS V14.01,2013-02-01 08:02:00,
2013-02-01 02:07:00,49.7,37.6,30.19,WNW,290,3.0,8.0,63,0.00,,,0.00,VWS V14.01,2013-02-01 08:07:00,
2013-02-01 02:12:00,49.4,37.8,30.19,WNW,295,5.0,8.0,64,0.00,,,0.00,VWS V14.01,2013-02-01 08:12:00,
2013-02-01 02:17:00,49.1,37.5,30.20,WNW,295,6.0,8.0,64,0.00,,,0.00,VWS V14.01,2013-02-01 08:17:00,
2013-02-01 02:22:00,48.8,37.2,30.20,WNW,300,4.0,10.0,64,0.00,,,0.00,VWS V14.01,2013-02-01 08:22:00,
2013-02-01 02:27:00,48.6,37.0,30.20,WNW,291,2.0,10.0,64,0.00,,,0.00,VWS V14.01,2013-02-01 08:27:00,
2013-02-01 02:30:00,47.4,36.2,30.20,NW,307,3.0,8.0,65,0.00,,,0.00,VWS V14.01,2013-02-01 08:30:00,
2013-02-01 02:32:00,48.4,36.4,30.20,WNW,295,5.0,8.0,63,0.00,,,0.00,VWS V14.01,2013-02-01 08:32:00,
2013-02-01 02:37:00,48.3,36.3,30.20,WNW,293,4.0,8.0,63,0.00,,,0.00,VWS V14.01,2013-02-01 08:37:00,
2013-02-01 02:42:00,48.2,36.2,30.20,West,270,4.0,8.0,63,0.00,,,0.00,VWS V14.01,2013-02-01 08:42:00,
2013-02-01 02:47:00,48.2,35.8,30.20,WNW,290,5.0,9.0,62,0.00,,,0.00,VWS V14.01,2013-02-01 08:47:00,
2013-02-01 02:52:00,48.1,35.7,30.20,NW,316,3.0,9.0,62,0.00,,,0.00,VWS V14.01,2013-02-01 08:52:00,
2013-02-01 02:57:00,48.0,36.0,30.20,NW,323,5.0,9.0,63,0.00,,,0.00,VWS V14.01,2013-02-01 08:57:00,
2013-02-01 03:00:00,47.1,36.0,30.21,WNW,300,8.0,9.0,65,0.00,,,0.00,VWS V14.01,2013-02-01 09:00:00,
2013-02-01 03:02:00,47.9,35.9,30.19,NW,307,7.0,7.0,63,0.00,,,0.00,VWS V14.01,2013-02-01 09:02:00,
2013-02-01 03:07:00,47.8,35.8,30.20,West,278,4.0,7.0,63,0.00,,,0.00,VWS V14.01,2013-02-01 09:07:00,
2013-02-01 03:12:00,47.7,36.1,30.20,WNW,288,3.0,8.0,64,0.00,,,0.00,VWS V14.01,2013-02-01 09:12:00,
2013-02-01 03:17:00,47.5,35.9,30.20,WNW,292,2.0,8.0,64,0.00,,,0.00,VWS V14.01,2013-02-01 09:17:00,
2013-02-01 03:22:00,47.4,36.2,30.20,WNW,298,4.0,8.0,65,0.00,,,0.00,VWS V14.01,2013-02-01 09:22:00,
2013-02-01 03:27:00,47.4,36.2,30.20,WNW,291,5.0,8.0,65,0.00,,,0.00,VWS V14.01,2013-02-01 09:27:00,
2013-02-01 03:30:00,47.1,33.5,30.22,NW,305,4.0,10.0,59,0.00,,,0.00,VWS V14.01,2013-02-01 09:30:00,
2013-02-01 03:32:00,47.3,36.2,30.20,WNW,294,4.0,7.0,65,0.00,,,0.00,VWS V14.01,2013-02-01 09:32:00,
2013-02-01 03:37:00,47.2,36.0,30.20,WNW,300,4.0,7.0,65,0.00,,,0.00,VWS V14.01,2013-02-01 09:37:00,
2013-02-01 03:42:00,47.2,36.0,30.20,WNW,287,4.0,7.0,65,0.00,,,0.00,VWS V14.01,2013-02-01 09:42:00,
2013-02-01 03:47:00,47.1,36.3,30.20,West,274,6.0,7.0,66,0.00,,,0.00,VWS V14.01,2013-02-01 09:47:00,
2013-02-01 03:52:00,47.1,36.3,30.20,WNW,298,5.0,8.0,66,0.00,,,0.00,VWS V14.01,2013-02-01 09:52:00,
2013-02-01 03:57:00,47.1,36.3,30.21,WNW,301,9.0,9.0,66,0.00,,,0.00,VWS V14.01,2013-02-01 09:57:00,
2013-02-01 04:00:00,47.0,33.8,30.23,NW,323,4.0,14.0,60,0.00,,,0.00,VWS V14.01,2013-02-01 10:00:00,
2013-02-01 04:02:00,47.1,36.0,30.21,WNW,282,7.0,9.0,65,0.00,,,0.00,VWS V14.01,2013-02-01 10:02:00,
2013-02-01 04:07:00,47.1,35.6,30.20,WSW,255,5.0,10.0,64,0.00,,,0.00,VWS V14.01,2013-02-01 10:07:00,
2013-02-01 04:12:00,47.1,34.8,30.20,West,280,3.0,10.0,62,0.00,,,0.00,VWS V14.01,2013-02-01 10:12:00,
2013-02-01 04:17:00,47.2,34.5,30.21,WNW,300,4.0,10.0,61,0.00,,,0.00,VWS V14.01,2013-02-01 10:17:00,
2013-02-01 04:22:00,47.1,33.9,30.21,WNW,283,7.0,10.0,60,0.00,,,0.00,VWS V14.01,2013-02-01 10:22:00,
2013-02-01 04:27:00,47.1,33.9,30.22,WNW,300,6.0,10.0,60,0.00,,,0.00,VWS V14.01,2013-02-01 10:27:00,
2013-02-01 04:30:00,46.4,35.3,30.24,West,278,4.0,13.0,65,0.00,,,0.00,VWS V14.01,2013-02-01 10:30:00,
2013-02-01 04:32:00,47.1,33.9,30.22,WNW,300,5.0,7.0,60,0.00,,,0.00,VWS V14.01,2013-02-01 10:32:00,
2013-02-01 04:37:00,47.1,33.5,30.22,NW,314,5.0,9.0,59,0.00,,,0.00,VWS V14.01,2013-02-01 10:37:00,
2013-02-01 04:42:00,47.1,33.5,30.22,WNW,295,5.0,9.0,59,0.00,,,0.00,VWS V14.01,2013-02-01 10:42:00,
2013-02-01 04:47:00,47.1,33.5,30.22,WNW,288,5.0,9.0,59,0.00,,,0.00,VWS V14.01,2013-02-01 10:47:00,
2013-02-01 04:52:00,47.1,33.9,30.22,WNW,293,7.0,9.0,60,0.00,,,0.00,VWS V14.01,2013-02-01 10:52:00,
2013-02-01 04:57:00,47.1,33.9,30.23,WNW,287,6.0,11.0,60,0.00,,,0.00,VWS V14.01,2013-02-01 10:57:00,
2013-02-01 05:00:00,46.3,36.0,30.25,West,280,5.0,11.0,67,0.00,,,0.00,VWS V14.01,2013-02-01 11:00:00,
2013-02-01 05:02:00,47.0,34.3,30.23,NW,326,7.0,11.0,61,0.00,,,0.00,VWS V14.01,2013-02-01 11:02:00,
2013-02-01 05:07:00,46.9,34.2,30.23,WNW,294,5.0,13.0,61,0.00,,,0.00,VWS V14.01,2013-02-01 11:07:00,
2013-02-01 05:12:00,46.7,34.4,30.24,NW,319,7.0,13.0,62,0.00,,,0.00,VWS V14.01,2013-02-01 11:12:00,
2013-02-01 05:17:00,46.6,34.7,30.24,WNW,293,4.0,13.0,63,0.00,,,0.00,VWS V14.01,2013-02-01 11:17:00,
2013-02-01 05:22:00,46.4,34.9,30.24,West,280,4.0,13.0,64,0.00,,,0.00,VWS V14.01,2013-02-01 11:22:00,
2013-02-01 05:27:00,46.5,35.4,30.24,West,280,4.0,13.0,65,0.00,,,0.00,VWS V14.01,2013-02-01 11:27:00,
2013-02-01 05:30:00,46.6,36.6,30.26,WNW,291,5.0,11.0,68,0.00,,,0.00,VWS V14.01,2013-02-01 11:30:00,
2013-02-01 05:32:00,46.3,35.2,30.24,NW,307,4.0,8.0,65,0.00,,,0.00,VWS V14.01,2013-02-01 11:32:00,
2013-02-01 05:37:00,46.2,35.5,30.24,WNW,303,6.0,8.0,66,0.00,,,0.00,VWS V14.01,2013-02-01 11:37:00,
2013-02-01 05:42:00,46.2,35.5,30.25,WNW,291,4.0,8.0,66,0.00,,,0.00,VWS V14.01,2013-02-01 11:42:00,
2013-02-01 05:47:00,46.1,35.8,30.25,NW,315,4.0,10.0,67,0.00,,,0.00,VWS V14.01,2013-02-01 11:47:00,
2013-02-01 05:52:00,46.2,35.9,30.25,WNW,290,4.0,10.0,67,0.00,,,0.00,VWS V14.01,2013-02-01 11:52:00,
2013-02-01 05:57:00,46.3,36.0,30.25,WNW,302,3.0,11.0,67,0.00,,,0.00,VWS V14.01,2013-02-01 11:57:00,
2013-02-01 06:00:00,48.4,37.6,30.27,NW,317,8.0,12.0,66,0.00,,,0.00,VWS V14.01,2013-02-01 12:00:00,
2013-02-01 06:02:00,46.3,36.0,30.25,NW,307,6.0,8.0,67,0.00,,,0.00,VWS V14.01,2013-02-01 12:02:00,
2013-02-01 06:07:00,46.4,36.0,30.25,NW,314,5.0,10.0,67,0.00,,,0.00,VWS V14.01,2013-02-01 12:07:00,
2013-02-01 06:12:00,46.3,36.0,30.26,NNW,329,7.0,10.0,67,0.00,,,0.00,VWS V14.01,2013-02-01 12:12:00,
2013-02-01 06:17:00,46.3,36.0,30.26,WNW,285,6.0,11.0,67,0.00,,,0.00,VWS V14.01,2013-02-01 12:17:00,
2013-02-01 06:22:00,46.3,36.3,30.26,NW,316,6.0,11.0,68,0.00,,,0.00,VWS V14.01,2013-02-01 12:22:00,
2013-02-01 06:27:00,46.5,36.5,30.26,NW,309,3.0,11.0,68,0.00,,,0.00,VWS V14.01,2013-02-01 12:27:00,
2013-02-01 06:30:00,50.6,38.9,30.27,WNW,303,4.0,13.0,64,0.00,,,0.00,VWS V14.01,2013-02-01 12:30:00,
2013-02-01 06:32:00,46.7,36.7,30.26,WNW,291,2.0,7.0,68,0.00,,,0.00,VWS V14.01,2013-02-01 12:32:00,
2013-02-01 06:37:00,47.0,37.0,30.26,NW,312,6.0,8.0,68,0.00,,,0.00,VWS V14.01,2013-02-01 12:37:00,
2013-02-01 06:42:00,47.4,37.0,30.26,NW,314,3.0,10.0,67,0.00,,,0.00,VWS V14.01,2013-02-01 12:42:00,
2013-02-01 06:47:00,47.6,37.2,30.26,WNW,291,4.0,10.0,67,0.00,,,0.00,VWS V14.01,2013-02-01 12:47:00,
2013-02-01 06:52:00,47.9,37.5,30.27,WNW,300,3.0,10.0,67,0.00,,,0.00,VWS V14.01,2013-02-01 12:52:00,
2013-02-01 06:57:00,48.2,37.4,30.27,WNW,302,6.0,11.0,66,0.00,,,0.00,VWS V14.01,2013-02-01 12:57:00,
2013-02-01 07:00:00,52.7,40.1,30.30,WNW,302,11.0,14.0,62,0.00,,,0.00,VWS V14.01,2013-02-01 13:00:00,
2013-02-01 07:02:00,48.6,37.8,30.27,WNW,303,9.0,10.0,66,0.00,,,0.00,VWS V14.01,2013-02-01 13:02:00,
2013-02-01 07:07:00,48.9,37.7,30.27,WNW,300,9.0,10.0,65,0.00,,,0.00,VWS V14.01,2013-02-01 13:07:00,
2013-02-01 07:12:00,49.3,38.0,30.27,NW,308,7.0,13.0,65,0.00,,,0.00,VWS V14.01,2013-02-01 13:12:00,
2013-02-01 07:17:00,49.7,38.4,30.27,NW,314,5.0,13.0,65,0.00,,,0.00,VWS V14.01,2013-02-01 13:17:00,
2013-02-01 07:22:00,50.0,38.7,30.27,NW,308,7.0,13.0,65,0.00,,,0.00,VWS V14.01,2013-02-01 13:22:00,
2013-02-01 07:27:00,50.4,39.1,30.27,WNW,302,3.0,13.0,65,0.00,,,0.00,VWS V14.01,2013-02-01 13:27:00,
2013-02-01 07:30:00,54.8,42.0,30.30,WNW,301,5.0,15.0,62,0.00,,,0.00,VWS V14.01,2013-02-01 13:30:00,
2013-02-01 07:32:00,50.9,39.2,30.27,NW,316,7.0,11.0,64,0.00,,,0.00,VWS V14.01,2013-02-01 13:32:00,
2013-02-01 07:37:00,51.2,39.5,30.28,NNW,328,8.0,12.0,64,0.00,,,0.00,VWS V14.01,2013-02-01 13:37:00,
2013-02-01 07:42:00,51.6,39.8,30.28,WNW,291,6.0,12.0,64,0.00,,,0.00,VWS V14.01,2013-02-01 13:42:00,
2013-02-01 07:47:00,51.9,39.7,30.29,NW,312,5.0,12.0,63,0.00,,,0.00,VWS V14.01,2013-02-01 13:47:00,
2013-02-01 07:52:00,52.3,40.1,30.29,WNW,300,8.0,13.0,63,0.00,,,0.00,VWS V14.01,2013-02-01 13:52:00,
2013-02-01 07:57:00,52.5,39.9,30.29,NW,307,3.0,13.0,62,0.00,,,0.00,VWS V14.01,2013-02-01 13:57:00,
2013-02-01 08:00:00,58.3,45.3,30.31,NW,307,11.0,19.0,62,0.00,,,0.00,VWS V14.01,2013-02-01 14:00:00,
2013-02-01 08:02:00,52.8,40.2,30.30,WNW,292,7.0,11.0,62,0.00,,,0.00,VWS V14.01,2013-02-01 14:02:00,
2013-02-01 08:07:00,53.2,40.5,30.29,NW,325,12.0,14.0,62,0.00,,,0.00,VWS V14.01,2013-02-01 14:07:00,
2013-02-01 08:12:00,53.6,40.9,30.29,WNW,288,5.0,14.0,62,0.00,,,0.00,VWS V14.01,2013-02-01 14:12:00,
2013-02-01 08:17:00,53.9,41.2,30.30,NW,321,8.0,14.0,62,0.00,,,0.00,VWS V14.01,2013-02-01 14:17:00,
2013-02-01 08:22:00,54.1,41.4,30.29,WNW,295,3.0,14.0,62,0.00,,,0.00,VWS V14.01,2013-02-01 14:22:00,
2013-02-01 08:27:00,54.5,41.8,30.30,WNW,292,10.0,15.0,62,0.00,,,0.00,VWS V14.01,2013-02-01 14:27:00,
2013-02-01 08:30:00,60.0,47.4,30.31,WNW,292,8.0,18.0,63,0.00,,,0.00,VWS V14.01,2013-02-01 14:30:00,
2013-02-01 08:32:00,55.1,42.3,30.30,NW,321,5.0,12.0,62,0.00,,,0.00,VWS V14.01,2013-02-01 14:32:00,
2013-02-01 08:37:00,55.6,42.8,30.30,NW,317,8.0,14.0,62,0.00,,,0.00,VWS V14.01,2013-02-01 14:37:00,
2013-02-01 08:42:00,56.3,43.9,30.30,WNW,296,6.0,14.0,63,0.00,,,0.00,VWS V14.01,2013-02-01 14:42:00,
2013-02-01 08:47:00,57.0,44.5,30.30,WNW,289,5.0,14.0,63,0.00,,,0.00,VWS V14.01,2013-02-01 14:47:00,
2013-02-01 08:52:00,57.6,44.7,30.30,NNW,335,8.0,14.0,62,0.00,,,0.00,VWS V14.01,2013-02-01 14:52:00,
2013-02-01 08:57:00,58.1,45.6,30.30,North,354,5.0,14.0,63,0.00,,,0.00,VWS V14.01,2013-02-01 14:57:00,
2013-02-01 09:00:00,61.2,48.5,30.31,NW,316,9.0,19.0,63,0.00,,,0.00,VWS V14.01,2013-02-01 15:00:00,
2013-02-01 09:02:00,58.4,45.5,30.31,NW,318,11.0,14.0,62,0.00,,,0.00,VWS V14.01,2013-02-01 15:02:00,
2013-02-01 09:07:00,59.1,47.0,30.31,WNW,302,9.0,14.0,64,0.00,,,0.00,VWS V14.01,2013-02-01 15:07:00,
2013-02-01 09:12:00,59.3,46.3,30.31,NW,322,10.0,14.0,62,0.00,,,0.00,VWS V14.01,2013-02-01 15:12:00,
2013-02-01 09:17:00,59.5,46.5,30.31,NE,43,6.0,15.0,62,0.00,,,0.00,VWS V14.01,2013-02-01 15:17:00,
2013-02-01 09:22:00,59.6,46.6,30.31,NE,37,8.0,18.0,62,0.00,,,0.00,VWS V14.01,2013-02-01 15:22:00,
2013-02-01 09:27:00,59.8,46.8,30.31,NW,305,8.0,18.0,62,0.00,,,0.00,VWS V14.01,2013-02-01 15:27:00,
2013-02-01 09:30:00,62.1,50.2,30.31,North,353,18.0,19.0,65,0.00,,,0.00,VWS V14.01,2013-02-01 15:30:00,
2013-02-01 09:32:00,60.4,47.8,30.31,NW,307,11.0,11.0,63,0.00,,,0.00,VWS V14.01,2013-02-01 15:32:00,
2013-02-01 09:37:00,60.3,47.2,30.31,NW,314,16.0,18.0,62,0.00,,,0.00,VWS V14.01,2013-02-01 15:37:00,
2013-02-01 09:42:00,60.1,47.0,30.31,NW,325,11.0,19.0,62,0.00,,,0.00,VWS V14.01,2013-02-01 15:42:00,
2013-02-01 09:47:00,60.3,47.7,30.30,NNE,29,8.0,19.0,63,0.00,,,0.00,VWS V14.01,2013-02-01 15:47:00,
2013-02-01 09:52:00,60.8,48.1,30.30,NNW,346,14.0,19.0,63,0.00,,,0.00,VWS V14.01,2013-02-01 15:52:00,
2013-02-01 09:57:00,60.9,48.2,30.31,North,349,8.0,19.0,63,0.00,,,0.00,VWS V14.01,2013-02-01 15:57:00,
2013-02-01 10:00:00,63.1,51.2,30.30,NW,318,13.0,21.0,65,0.00,,,0.00,VWS V14.01,2013-02-01 16:00:00,
2013-02-01 10:02:00,61.4,48.7,30.30,NNW,333,10.0,14.0,63,0.00,,,0.00,VWS V14.01,2013-02-01 16:02:00,
2013-02-01 10:07:00,61.5,48.8,30.31,WNW,302,16.0,16.0,63,0.00,,,0.00,VWS V14.01,2013-02-01 16:07:00,
2013-02-01 10:12:00,61.7,49.4,30.31,NNW,347,15.0,19.0,64,0.00,,,0.00,VWS V14.01,2013-02-01 16:12:00,
2013-02-01 10:17:00,61.8,49.5,30.31,NNW,347,15.0,19.0,64,0.00,,,0.00,VWS V14.01,2013-02-01 16:17:00,
2013-02-01 10:22:00,62.0,49.7,30.30,NW,316,7.0,19.0,64,0.00,,,0.00,VWS V14.01,2013-02-01 16:22:00,
2013-02-01 10:27:00,62.0,49.7,30.31,North,352,12.0,19.0,64,0.00,,,0.00,VWS V14.01,2013-02-01 16:27:00,
2013-02-01 10:30:00,63.4,51.4,30.29,NNE,15,9.0,20.0,65,0.00,,,0.00,VWS V14.01,2013-02-01 16:30:00,
2013-02-01 10:32:00,62.3,50.0,30.31,NNW,333,13.0,19.0,64,0.00,,,0.00,VWS V14.01,2013-02-01 16:32:00,
2013-02-01 10:37:00,62.3,50.0,30.31,NW,326,9.0,21.0,64,0.00,,,0.00,VWS V14.01,2013-02-01 16:37:00,
2013-02-01 10:43:00,62.4,50.5,30.30,NW,323,14.0,21.0,65,0.00,,,0.00,VWS V14.01,2013-02-01 16:43:00,
2013-02-01 10:48:00,62.6,50.3,30.30,NW,316,11.0,21.0,64,0.00,,,0.00,VWS V14.01,2013-02-01 16:48:00,
2013-02-01 10:53:00,62.7,50.4,30.30,NNW,346,15.0,21.0,64,0.00,,,0.00,VWS V14.01,2013-02-01 16:53:00,
2013-02-01 10:58:00,63.1,50.7,30.30,WNW,298,12.0,21.0,64,0.00,,,0.00,VWS V14.01,2013-02-01 16:58:00,
2013-02-01 11:00:00,63.5,51.5,30.28,NNW,336,14.0,21.0,65,0.00,,,0.00,VWS V14.01,2013-02-01 17:00:00,
2013-02-01 11:03:00,62.8,50.5,30.30,NW,322,12.0,19.0,64,0.00,,,0.00,VWS V14.01,2013-02-01 17:03:00,
2013-02-01 11:08:00,63.0,51.1,30.30,NW,323,7.0,19.0,65,0.00,,,0.00,VWS V14.01,2013-02-01 17:08:00,
2013-02-01 11:13:00,63.1,50.7,30.30,WNW,288,16.0,19.0,64,0.00,,,0.00,VWS V14.01,2013-02-01 17:13:00,
2013-02-01 11:18:00,63.3,50.9,30.30,NW,317,10.0,19.0,64,0.00,,,0.00,VWS V14.01,2013-02-01 17:18:00,
2013-02-01 11:23:00,63.2,51.2,30.29,NW,311,8.0,20.0,65,0.00,,,0.00,VWS V14.01,2013-02-01 17:23:00,
2013-02-01 11:28:00,63.3,51.3,30.29,NNE,15,8.0,20.0,65,0.00,,,0.00,VWS V14.01,2013-02-01 17:28:00,
2013-02-01 11:30:00,64.2,51.8,30.27,NNW,328,17.0,20.0,64,0.00,,,0.00,VWS V14.01,2013-02-01 17:30:00,
2013-02-01 11:33:00,63.3,51.3,30.29,NW,325,8.0,18.0,65,0.00,,,0.00,VWS V14.01,2013-02-01 17:33:00,
2013-02-01 11:38:00,63.9,51.9,30.30,NNE,33,10.0,18.0,65,0.00,,,0.00,VWS V14.01,2013-02-01 17:38:00,
2013-02-01 11:43:00,63.7,51.3,30.29,NW,305,10.0,18.0,64,0.00,,,0.00,VWS V14.01,2013-02-01 17:43:00,
2013-02-01 11:48:00,63.6,51.6,30.29,NNW,346,9.0,18.0,65,0.00,,,0.00,VWS V14.01,2013-02-01 17:48:00,
2013-02-01 11:53:00,63.8,51.8,30.29,NW,318,15.0,18.0,65,0.00,,,0.00,VWS V14.01,2013-02-01 17:53:00,
2013-02-01 11:58:00,63.5,51.5,30.28,NNW,333,11.0,21.0,65,0.00,,,0.00,VWS V14.01,2013-02-01 17:58:00,
2013-02-01 12:00:00,64.2,51.4,30.27,NW,323,9.0,21.0,63,0.00,,,0.00,VWS V14.01,2013-02-01 18:00:00,
2013-02-01 12:03:00,63.5,51.5,30.28,NNW,333,13.0,16.0,65,0.00,,,0.00,VWS V14.01,2013-02-01 18:03:00,
2013-02-01 12:08:00,63.6,52.0,30.28,NNW,330,14.0,17.0,66,0.00,,,0.00,VWS V14.01,2013-02-01 18:08:00,
2013-02-01 12:13:00,63.7,51.7,30.28,North,354,17.0,20.0,65,0.00,,,0.00,VWS V14.01,2013-02-01 18:13:00,
2013-02-01 12:18:00,63.8,51.8,30.28,North,11,11.0,20.0,65,0.00,,,0.00,VWS V14.01,2013-02-01 18:18:00,
2013-02-01 12:23:00,63.8,52.2,30.27,NW,315,7.0,20.0,66,0.00,,,0.00,VWS V14.01,2013-02-01 18:23:00,
2013-02-01 12:28:00,64.2,51.8,30.27,North,11,11.0,20.0,64,0.00,,,0.00,VWS V14.01,2013-02-01 18:28:00,
2013-02-01 12:30:00,64.7,51.0,30.26,NE,44,10.0,19.0,61,0.00,,,0.00,VWS V14.01,2013-02-01 18:30:00,
2013-02-01 12:33:00,63.9,51.5,30.27,NNW,335,8.0,18.0,64,0.00,,,0.00,VWS V14.01,2013-02-01 18:33:00,
2013-02-01 12:38:00,64.1,51.7,30.27,NNW,337,12.0,21.0,64,0.00,,,0.00,VWS V14.01,2013-02-01 18:38:00,
2013-02-01 12:43:00,64.5,52.1,30.27,North,8,13.0,21.0,64,0.00,,,0.00,VWS V14.01,2013-02-01 18:43:00,
2013-02-01 12:48:00,64.4,52.0,30.27,NNW,339,10.0,21.0,64,0.00,,,0.00,VWS V14.01,2013-02-01 18:48:00,
2013-02-01 12:53:00,64.4,52.0,30.26,NNW,332,8.0,21.0,64,0.00,,,0.00,VWS V14.01,2013-02-01 18:53:00,
2013-02-01 12:58:00,64.2,51.4,30.27,NNW,330,10.0,21.0,63,0.00,,,0.00,VWS V14.01,2013-02-01 18:58:00,
2013-02-01 13:00:00,64.5,49.9,30.26,NE,43,8.0,17.0,59,0.00,,,0.00,VWS V14.01,2013-02-01 19:00:00,
2013-02-01 13:03:00,64.3,51.5,30.26,NW,308,9.0,19.0,63,0.00,,,0.00,VWS V14.01,2013-02-01 19:03:00,
2013-02-01 13:08:00,64.1,51.3,30.26,NNW,338,14.0,19.0,63,0.00,,,0.00,VWS V14.01,2013-02-01 19:08:00,
2013-02-01 13:13:00,64.4,51.1,30.26,ENE,72,11.0,19.0,62,0.00,,,0.00,VWS V14.01,2013-02-01 19:13:00,
2013-02-01 13:18:00,64.3,50.1,30.26,NW,322,5.0,19.0,60,0.00,,,0.00,VWS V14.01,2013-02-01 19:18:00,
2013-02-01 13:23:00,64.5,50.3,30.26,NW,326,15.0,19.0,60,0.00,,,0.00,VWS V14.01,2013-02-01 19:23:00,
2013-02-01 13:28:00,64.5,50.8,30.26,NNE,15,8.0,19.0,61,0.00,,,0.00,VWS V14.01,2013-02-01 19:28:00,
2013-02-01 13:30:00,64.2,50.0,30.25,NNE,33,13.0,17.0,60,0.00,,,0.00,VWS V14.01,2013-02-01 19:30:00,
2013-02-01 13:33:00,64.7,50.5,30.26,NE,35,6.0,15.0,60,0.00,,,0.00,VWS V14.01,2013-02-01 19:33:00,
2013-02-01 13:38:00,64.7,50.5,30.26,NNW,339,13.0,16.0,60,0.00,,,0.00,VWS V14.01,2013-02-01 19:38:00,
2013-02-01 13:43:00,64.6,50.0,30.26,NNW,336,6.0,16.0,59,0.00,,,0.00,VWS V14.01,2013-02-01 19:43:00,
2013-02-01 13:48:00,64.9,50.2,30.26,North,8,15.0,16.0,59,0.00,,,0.00,VWS V14.01,2013-02-01 19:48:00,
2013-02-01 13:53:00,64.6,50.4,30.25,NW,319,12.0,17.0,60,0.00,,,0.00,VWS V14.01,2013-02-01 19:53:00,
2013-02-01 13:58:00,64.5,49.4,30.26,North,360,9.0,17.0,58,0.00,,,0.00,VWS V14.01,2013-02-01 19:58:00,
2013-02-01 14:00:00,63.9,49.8,30.25,NNW,341,8.0,17.0,60,0.00,,,0.00,VWS V14.01,2013-02-01 20:00:00,
2013-02-01 14:03:00,64.3,49.2,30.26,North,8,12.0,15.0,58,0.00,,,0.00,VWS V14.01,2013-02-01 20:03:00,
2013-02-01 14:08:00,64.3,49.2,30.25,North,354,12.0,15.0,58,0.00,,,0.00,VWS V14.01,2013-02-01 20:08:00,
2013-02-01 14:13:00,64.3,50.1,30.26,North,8,5.0,17.0,60,0.00,,,0.00,VWS V14.01,2013-02-01 20:13:00,
2013-02-01 14:18:00,64.3,50.6,30.25,NW,321,11.0,17.0,61,0.00,,,0.00,VWS V14.01,2013-02-01 20:18:00,
2013-02-01 14:23:00,64.3,50.6,30.25,NNE,22,13.0,17.0,61,0.00,,,0.00,VWS V14.01,2013-02-01 20:23:00,
2013-02-01 14:28:00,64.2,50.5,30.25,North,357,9.0,17.0,61,0.00,,,0.00,VWS V14.01,2013-02-01 20:28:00,
2013-02-01 14:30:00,63.6,48.6,30.25,NW,323,10.0,19.0,58,0.00,,,0.00,VWS V14.01,2013-02-01 20:30:00,
2013-02-01 14:33:00,64.1,50.0,30.25,NW,325,11.0,17.0,60,0.00,,,0.00,VWS V14.01,2013-02-01 20:33:00,
2013-02-01 14:38:00,63.7,50.0,30.25,NW,312,5.0,17.0,61,0.00,,,0.00,VWS V14.01,2013-02-01 20:38:00,
2013-02-01 14:43:00,63.8,50.5,30.25,NNW,338,6.0,17.0,62,0.00,,,0.00,VWS V14.01,2013-02-01 20:43:00,
2013-02-01 14:48:00,63.8,51.0,30.25,NW,307,7.0,17.0,63,0.00,,,0.00,VWS V14.01,2013-02-01 20:48:00,
2013-02-01 14:53:00,63.9,50.2,30.25,NE,34,8.0,17.0,61,0.00,,,0.00,VWS V14.01,2013-02-01 20:53:00,
2013-02-01 14:58:00,63.9,50.6,30.25,NE,39,7.0,17.0,62,0.00,,,0.00,VWS V14.01,2013-02-01 20:58:00,
2013-02-01 15:00:00,63.6,46.2,30.26,NE,49,5.0,14.0,53,0.00,,,0.00,VWS V14.01,2013-02-01 21:00:00,
2013-02-01 15:03:00,63.7,50.0,30.25,NNE,22,11.0,13.0,61,0.00,,,0.00,VWS V14.01,2013-02-01 21:03:00,
2013-02-01 15:08:00,63.6,48.1,30.26,NNE,15,9.0,19.0,57,0.00,,,0.00,VWS V14.01,2013-02-01 21:08:00,
2013-02-01 15:13:00,63.7,49.6,30.25,North,8,14.0,19.0,60,0.00,,,0.00,VWS V14.01,2013-02-01 21:13:00,
2013-02-01 15:18:00,63.7,49.6,30.25,NW,308,6.0,19.0,60,0.00,,,0.00,VWS V14.01,2013-02-01 21:18:00,
2013-02-01 15:23:00,63.5,49.4,30.25,NNW,337,8.0,19.0,60,0.00,,,0.00,VWS V14.01,2013-02-01 21:23:00,
2013-02-01 15:28:00,63.6,49.5,30.25,NNE,30,12.0,19.0,60,0.00,,,0.00,VWS V14.01,2013-02-01 21:28:00,
2013-02-01 15:30:00,62.8,45.4,30.26,NW,312,6.0,16.0,53,0.00,,,0.00,VWS V14.01,2013-02-01 21:30:00,
2013-02-01 15:33:00,63.6,48.1,30.25,NNW,330,5.0,10.0,57,0.00,,,0.00,VWS V14.01,2013-02-01 21:33:00,
2013-02-01 15:38:00,63.6,47.2,30.25,NNE,26,7.0,14.0,55,0.00,,,0.00,VWS V14.01,2013-02-01 21:38:00,
2013-02-01 15:43:00,63.5,48.9,30.26,NNE,26,8.0,14.0,59,0.00,,,0.00,VWS V14.01,2013-02-01 21:43:00,
2013-02-01 15:48:00,63.5,47.5,30.26,NNE,20,10.0,14.0,56,0.00,,,0.00,VWS V14.01,2013-02-01 21:48:00,
2013-02-01 15:53:00,63.5,46.6,30.26,NW,323,3.0,14.0,54,0.00,,,0.00,VWS V14.01,2013-02-01 21:53:00,
2013-02-01 15:58:00,63.5,45.6,30.26,NNE,13,6.0,14.0,52,0.00,,,0.00,VWS V14.01,2013-02-01 21:58:00,
2013-02-01 16:00:00,61.7,44.4,30.26,NW,323,3.0,11.0,53,0.00,,,0.00,VWS V14.01,2013-02-01 22:00:00,
2013-02-01 16:03:00,63.5,47.5,30.26,NNE,15,4.0,11.0,56,0.00,,,0.00,VWS V14.01,2013-02-01 22:03:00,
2013-02-01 16:08:00,63.4,47.0,30.26,North,360,3.0,11.0,55,0.00,,,0.00,VWS V14.01,2013-02-01 22:08:00,
2013-02-01 16:13:00,63.3,44.9,30.26,NW,326,9.0,16.0,51,0.00,,,0.00,VWS V14.01,2013-02-01 22:13:00,
2013-02-01 16:18:00,63.0,45.1,30.26,North,349,7.0,16.0,52,0.00,,,0.00,VWS V14.01,2013-02-01 22:18:00,
2013-02-01 16:23:00,62.9,46.0,30.26,NNE,19,5.0,16.0,54,0.00,,,0.00,VWS V14.01,2013-02-01 22:23:00,
2013-02-01 16:28:00,62.8,45.4,30.26,NNE,15,7.0,16.0,53,0.00,,,0.00,VWS V14.01,2013-02-01 22:28:00,
2013-02-01 16:30:00,58.8,44.1,30.26,NW,321,1.0,4.0,58,0.00,,,0.00,VWS V14.01,2013-02-01 22:30:00,
2013-02-01 16:33:00,62.8,45.4,30.26,North,5,2.0,9.0,53,0.00,,,0.00,VWS V14.01,2013-02-01 22:33:00,
2013-02-01 16:38:00,62.7,44.8,30.26,NNE,19,6.0,11.0,52,0.00,,,0.00,VWS V14.01,2013-02-01 22:38:00,
2013-02-01 16:43:00,62.6,45.2,30.26,NNE,26,6.0,11.0,53,0.00,,,0.00,VWS V14.01,2013-02-01 22:43:00,
2013-02-01 16:48:00,62.5,45.2,30.26,WNW,295,2.0,11.0,53,0.00,,,0.00,VWS V14.01,2013-02-01 22:48:00,
2013-02-01 16:53:00,62.2,44.4,30.26,NNE,15,4.0,11.0,52,0.00,,,0.00,VWS V14.01,2013-02-01 22:53:00,
2013-02-01 16:58:00,61.8,44.5,30.26,North,351,1.0,11.0,53,0.00,,,0.00,VWS V14.01,2013-02-01 22:58:00,
2013-02-01 17:00:00,56.8,43.9,30.26,WNW,296,1.0,2.0,62,0.00,,,0.00,VWS V14.01,2013-02-01 23:00:00,
2013-02-01 17:03:00,61.4,44.1,30.26,North,352,4.0,4.0,53,0.00,,,0.00,VWS V14.01,2013-02-01 23:03:00,
2013-02-01 17:08:00,60.9,44.2,30.26,NW,312,2.0,4.0,54,0.00,,,0.00,VWS V14.01,2013-02-01 23:08:00,
2013-02-01 17:13:00,60.4,43.7,30.26,NNW,333,1.0,4.0,54,0.00,,,0.00,VWS V14.01,2013-02-01 23:13:00,
2013-02-01 17:18:00,60.0,43.8,30.25,NNW,335,0.0,4.0,55,0.00,,,0.00,VWS V14.01,2013-02-01 23:18:00,
2013-02-01 17:23:00,59.5,43.8,30.26,NNW,330,1.0,4.0,56,0.00,,,0.00,VWS V14.01,2013-02-01 23:23:00,
2013-02-01 17:28:00,59.0,44.3,30.26,NW,321,2.0,4.0,58,0.00,,,0.00,VWS V14.01,2013-02-01 23:28:00,
2013-02-01 17:30:00,56.0,44.0,30.26,WNW,293,0.0,2.0,64,0.00,,,0.00,VWS V14.01,2013-02-01 23:30:00,
2013-02-01 17:33:00,58.5,44.2,30.26,WNW,301,0.0,2.0,59,0.00,,,0.00,VWS V14.01,2013-02-01 23:33:00,
2013-02-01 17:38:00,58.2,44.4,30.26,WNW,295,0.0,2.0,60,0.00,,,0.00,VWS V14.01,2013-02-01 23:38:00,
2013-02-01 17:43:00,57.8,44.5,30.26,WNW,297,0.0,2.0,61,0.00,,,0.00,VWS V14.01,2013-02-01 23:43:00,
2013-02-01 17:48:00,57.6,44.7,30.26,WNW,297,0.0,2.0,62,0.00,,,0.00,VWS V14.01,2013-02-01 23:48:00,
2013-02-01 17:53:00,57.2,44.3,30.26,WNW,296,0.0,2.0,62,0.00,,,0.00,VWS V14.01,2013-02-01 23:53:00,
2013-02-01 17:58:00,56.9,44.5,30.26,WNW,296,1.0,2.0,63,0.00,,,0.00,VWS V14.01,2013-02-01 23:58:00,
2013-02-01 18:00:00,56.3,43.5,30.26,WNW,300,0.0,2.0,62,0.00,,,0.00,VWS V14.01,2013-02-02 00:00:00,
2013-02-01 18:03:00,56.8,43.9,30.26,WNW,297,1.0,2.0,62,0.00,,,0.00,VWS V14.01,2013-02-02 00:03:00,
2013-02-01 18:08:00,56.7,44.3,30.26,WNW,284,1.0,2.0,63,0.00,,,0.00,VWS V14.01,2013-02-02 00:08:00,
2013-02-01 18:13:00,56.5,44.1,30.26,WNW,287,1.0,2.0,63,0.00,,,0.00,VWS V14.01,2013-02-02 00:13:00,
2013-02-01 18:18:00,56.5,44.1,30.26,WNW,293,1.0,2.0,63,0.00,,,0.00,VWS V14.01,2013-02-02 00:18:00,
2013-02-01 18:23:00,56.4,44.0,30.26,WNW,292,0.0,2.0,63,0.00,,,0.00,VWS V14.01,2013-02-02 00:23:00,
2013-02-01 18:28:00,56.1,44.1,30.26,WNW,292,0.0,2.0,64,0.00,,,0.00,VWS V14.01,2013-02-02 00:28:00,
2013-02-01 18:30:00,56.2,42.9,30.26,WNW,284,1.0,1.0,61,0.00,,,0.00,VWS V14.01,2013-02-02 00:30:00,
2013-02-01 18:33:00,55.9,43.9,30.26,WNW,293,0.0,0.0,64,0.00,,,0.00,VWS V14.01,2013-02-02 00:33:00,
2013-02-01 18:38:00,55.8,44.2,30.26,WNW,292,0.0,0.0,65,0.00,,,0.00,VWS V14.01,2013-02-02 00:38:00,
2013-02-01 18:43:00,55.7,44.1,30.26,WNW,296,1.0,2.0,65,0.00,,,0.00,VWS V14.01,2013-02-02 00:43:00,
2013-02-01 18:48:00,55.8,43.8,30.26,WNW,298,1.0,2.0,64,0.00,,,0.00,VWS V14.01,2013-02-02 00:48:00,
2013-02-01 18:53:00,56.1,43.7,30.26,WNW,298,0.0,2.0,63,0.00,,,0.00,VWS V14.01,2013-02-02 00:53:00,
2013-02-01 18:58:00,56.2,43.4,30.26,WNW,300,0.0,2.0,62,0.00,,,0.00,VWS V14.01,2013-02-02 00:58:00,
2013-02-01 19:00:00,56.2,41.6,30.26,WNW,297,1.0,2.0,58,0.00,,,0.00,VWS V14.01,2013-02-02 01:00:00,
2013-02-01 19:03:00,56.2,43.4,30.26,WNW,300,0.0,0.0,62,0.00,,,0.00,VWS V14.01,2013-02-02 01:03:00,
2013-02-01 19:08:00,56.2,43.0,30.26,WNW,300,0.0,0.0,61,0.00,,,0.00,VWS V14.01,2013-02-02 01:08:00,
2013-02-01 19:13:00,56.4,42.7,30.26,WNW,300,1.0,1.0,60,0.00,,,0.00,VWS V14.01,2013-02-02 01:13:00,
2013-02-01 19:18:00,56.5,42.8,30.26,WNW,284,0.0,1.0,60,0.00,,,0.00,VWS V14.01,2013-02-02 01:18:00,
2013-02-01 19:23:00,56.3,43.0,30.26,WNW,284,0.0,1.0,61,0.00,,,0.00,VWS V14.01,2013-02-02 01:23:00,
2013-02-01 19:28:00,56.3,43.0,30.26,WNW,284,0.0,1.0,61,0.00,,,0.00,VWS V14.01,2013-02-02 01:28:00,
2013-02-01 19:30:00,56.0,40.5,30.26,NW,312,2.0,3.0,56,0.00,,,0.00,VWS V14.01,2013-02-02 01:30:00,
2013-02-01 19:33:00,56.0,43.6,30.26,WNW,284,1.0,1.0,63,0.00,,,0.00,VWS V14.01,2013-02-02 01:33:00,
2013-02-01 19:38:00,55.5,42.7,30.26,WNW,284,1.0,1.0,62,0.00,,,0.00,VWS V14.01,2013-02-02 01:38:00,
2013-02-01 19:43:00,56.1,41.5,30.25,WNW,296,1.0,2.0,58,0.00,,,0.00,VWS V14.01,2013-02-02 01:43:00,
2013-02-01 19:48:00,56.5,41.5,30.26,WNW,297,1.0,2.0,57,0.00,,,0.00,VWS V14.01,2013-02-02 01:48:00,
2013-02-01 19:53:00,56.5,41.5,30.25,WNW,297,0.0,2.0,57,0.00,,,0.00,VWS V14.01,2013-02-02 01:53:00,
2013-02-01 19:58:00,56.2,41.6,30.26,WNW,297,1.0,2.0,58,0.00,,,0.00,VWS V14.01,2013-02-02 01:58:00,
2013-02-01 20:00:00,55.6,40.2,30.26,NW,308,2.0,4.0,56,0.00,,,0.00,VWS V14.01,2013-02-02 02:00:00,
2013-02-01 20:03:00,56.2,41.2,30.25,WNW,297,0.0,1.0,57,0.00,,,0.00,VWS V14.01,2013-02-02 02:03:00,
2013-02-01 20:08:00,56.0,41.9,30.25,WNW,295,2.0,2.0,59,0.00,,,0.00,VWS V14.01,2013-02-02 02:08:00,
2013-02-01 20:13:00,55.9,40.5,30.26,NW,307,2.0,2.0,56,0.00,,,0.00,VWS V14.01,2013-02-02 02:13:00,
2013-02-01 20:18:00,56.4,40.5,30.26,NW,305,1.0,2.0,55,0.00,,,0.00,VWS V14.01,2013-02-02 02:18:00,
2013-02-01 20:23:00,56.4,40.5,30.26,WNW,300,2.0,2.0,55,0.00,,,0.00,VWS V14.01,2013-02-02 02:23:00,
2013-02-01 20:28:00,56.1,40.6,30.26,NW,305,2.0,3.0,56,0.00,,,0.00,VWS V14.01,2013-02-02 02:28:00,
2013-02-01 20:30:00,55.8,38.9,30.27,NW,316,3.0,4.0,53,0.00,,,0.00,VWS V14.01,2013-02-02 02:30:00,
2013-02-01 20:33:00,55.9,40.5,30.26,WNW,300,2.0,2.0,56,0.00,,,0.00,VWS V14.01,2013-02-02 02:33:00,
2013-02-01 20:38:00,55.8,40.8,30.26,NW,305,3.0,4.0,57,0.00,,,0.00,VWS V14.01,2013-02-02 02:38:00,
2013-02-01 20:43:00,55.3,41.2,30.26,NW,307,1.0,4.0,59,0.00,,,0.00,VWS V14.01,2013-02-02 02:43:00,
2013-02-01 20:48:00,55.2,40.7,30.27,NW,307,3.0,4.0,58,0.00,,,0.00,VWS V14.01,2013-02-02 02:48:00,
2013-02-01 20:53:00,55.6,40.2,30.26,NW,307,1.0,4.0,56,0.00,,,0.00,VWS V14.01,2013-02-02 02:53:00,
2013-02-01 20:58:00,55.7,40.3,30.26,NW,321,2.0,4.0,56,0.00,,,0.00,VWS V14.01,2013-02-02 02:58:00,
2013-02-01 21:00:00,55.5,38.7,30.27,NW,304,2.0,4.0,53,0.00,,,0.00,VWS V14.01,2013-02-02 03:00:00,
2013-02-01 21:03:00,55.6,40.2,30.26,NW,315,1.0,3.0,56,0.00,,,0.00,VWS V14.01,2013-02-02 03:03:00,
2013-02-01 21:08:00,55.5,40.1,30.27,NW,305,1.0,3.0,56,0.00,,,0.00,VWS V14.01,2013-02-02 03:08:00,
2013-02-01 21:13:00,55.4,40.0,30.27,WNW,298,2.0,3.0,56,0.00,,,0.00,VWS V14.01,2013-02-02 03:13:00,
2013-02-01 21:18:00,55.5,39.6,30.27,NW,309,1.0,4.0,55,0.00,,,0.00,VWS V14.01,2013-02-02 03:18:00,
2013-02-01 21:23:00,55.5,39.6,30.27,NW,308,1.0,4.0,55,0.00,,,0.00,VWS V14.01,2013-02-02 03:23:00,
2013-02-01 21:28:00,55.6,38.8,30.27,NW,309,3.0,4.0,53,0.00,,,0.00,VWS V14.01,2013-02-02 03:28:00,
2013-02-01 21:30:00,54.8,38.0,30.26,WNW,285,2.0,4.0,53,0.00,,,0.00,VWS V14.01,2013-02-02 03:30:00,
2013-02-01 21:33:00,55.8,39.4,30.27,NW,314,2.0,3.0,54,0.00,,,0.00,VWS V14.01,2013-02-02 03:33:00,
2013-02-01 21:38:00,55.7,38.8,30.27,NW,316,2.0,3.0,53,0.00,,,0.00,VWS V14.01,2013-02-02 03:38:00,
2013-02-01 21:43:00,55.7,38.4,30.27,NW,307,1.0,3.0,52,0.00,,,0.00,VWS V14.01,2013-02-02 03:43:00,
2013-02-01 21:48:00,55.7,38.4,30.27,NW,307,2.0,3.0,52,0.00,,,0.00,VWS V14.01,2013-02-02 03:48:00,
2013-02-01 21:53:00,55.8,38.5,30.27,WNW,302,0.0,4.0,52,0.00,,,0.00,VWS V14.01,2013-02-02 03:53:00,
2013-02-01 21:58:00,55.6,38.8,30.27,NW,307,2.0,4.0,53,0.00,,,0.00,VWS V14.01,2013-02-02 03:58:00,
2013-02-01 22:00:00,53.4,38.6,30.26,WNW,287,3.0,3.0,57,0.00,,,0.00,VWS V14.01,2013-02-02 04:00:00,
2013-02-01 22:03:00,55.3,38.5,30.27,WNW,300,2.0,3.0,53,0.00,,,0.00,VWS V14.01,2013-02-02 04:03:00,
2013-02-01 22:08:00,55.1,38.3,30.27,WNW,295,3.0,4.0,53,0.00,,,0.00,VWS V14.01,2013-02-02 04:08:00,
2013-02-01 22:13:00,55.1,38.3,30.27,WNW,294,2.0,4.0,53,0.00,,,0.00,VWS V14.01,2013-02-02 04:13:00,
2013-02-01 22:18:00,55.2,37.9,30.27,WNW,294,2.0,4.0,52,0.00,,,0.00,VWS V14.01,2013-02-02 04:18:00,
2013-02-01 22:23:00,55.1,38.3,30.26,WNW,284,1.0,4.0,53,0.00,,,0.00,VWS V14.01,2013-02-02 04:23:00,
2013-02-01 22:28:00,54.9,38.1,30.26,WNW,284,2.0,4.0,53,0.00,,,0.00,VWS V14.01,2013-02-02 04:28:00,
2013-02-01 22:30:00,53.1,38.7,30.26,WNW,284,3.0,4.0,58,0.00,,,0.00,VWS V14.01,2013-02-02 04:30:00,
2013-02-01 22:33:00,54.7,37.9,30.26,WNW,284,2.0,3.0,53,0.00,,,0.00,VWS V14.01,2013-02-02 04:33:00,
2013-02-01 22:38:00,54.4,38.1,30.26,WNW,287,2.0,3.0,54,0.00,,,0.00,VWS V14.01,2013-02-02 04:38:00,
2013-02-01 22:43:00,54.1,37.8,30.26,WNW,287,2.0,3.0,54,0.00,,,0.00,VWS V14.01,2013-02-02 04:43:00,
2013-02-01 22:48:00,53.9,38.1,30.26,WNW,284,2.0,3.0,55,0.00,,,0.00,VWS V14.01,2013-02-02 04:48:00,
2013-02-01 22:53:00,53.7,38.4,30.26,WNW,284,2.0,3.0,56,0.00,,,0.00,VWS V14.01,2013-02-02 04:53:00,
2013-02-01 22:58:00,53.6,38.8,30.26,WNW,287,2.0,3.0,57,0.00,,,0.00,VWS V14.01,2013-02-02 04:58:00,
2013-02-01 23:00:00,53.4,38.6,30.26,WNW,287,3.0,3.0,57,0.00,,,0.00,VWS V14.01,2013-02-02 05:00:00,
2013-02-01 23:01:00,53.4,38.6,30.26,WNW,287,2.0,3.0,57,0.00,,,0.00,VWS V14.01,2013-02-02 05:01:00,
2013-02-01 23:06:00,53.2,38.8,30.26,WNW,284,2.0,3.0,58,0.00,,,0.00,VWS V14.01,2013-02-02 05:06:00,
2013-02-01 23:11:00,53.2,38.4,30.26,WNW,288,3.0,3.0,57,0.00,,,0.00,VWS V14.01,2013-02-02 05:11:00,
2013-02-01 23:16:00,53.2,38.8,30.26,WNW,285,3.0,3.0,58,0.00,,,0.00,VWS V14.01,2013-02-02 05:16:00,
2013-02-01 23:21:00,53.1,38.7,30.26,WNW,287,3.0,4.0,58,0.00,,,0.00,VWS V14.01,2013-02-02 05:21:00,
2013-02-01 23:26:00,53.1,38.7,30.26,WNW,290,3.0,4.0,58,0.00,,,0.00,VWS V14.01,2013-02-02 05:26:00,
2013-02-01 23:30:00,51.4,38.4,30.25,WNW,290,3.0,4.0,61,0.00,,,0.00,VWS V14.01,2013-02-02 05:30:00,
2013-02-01 23:31:00,53.1,38.7,30.26,WNW,287,3.0,3.0,58,0.00,,,0.00,VWS V14.01,2013-02-02 05:31:00,
2013-02-01 23:36:00,52.9,38.5,30.25,West,281,3.0,3.0,58,0.00,,,0.00,VWS V14.01,2013-02-02 05:36:00,
2013-02-01 23:41:00,52.7,38.3,30.26,WNW,285,3.0,3.0,58,0.00,,,0.00,VWS V14.01,2013-02-02 05:41:00,
2013-02-01 23:46:00,52.5,38.6,30.25,WNW,286,2.0,4.0,59,0.00,,,0.00,VWS V14.01,2013-02-02 05:46:00,
2013-02-01 23:51:00,52.3,38.8,30.25,WNW,284,3.0,4.0,60,0.00,,,0.00,VWS V14.01,2013-02-02 05:51:00,
2013-02-01 23:55:00,52.0,39.0,30.25,WNW,287,3.0,4.0,61,0.00,,,0.00,VWS V14.01,2013-02-02 05:55:00,